This is the latest recevied weather packets stored in our database for station/object K7AEL. If no packets are shown the sender has not sent any weather packets the latest 10 day(s).
| Time | Temp. | Humidity | Pressure | Rain* | Wind** | Luminosity | Snow |
|---|---|---|---|---|---|---|---|
| 1777681588 | 30° C | 18% | 1010.7 hPa | 0 mm | - | 141 W/m² | - |
| 1777681286 | 30.56° C | 18% | 1010.7 hPa | 0 mm | - | 154 W/m² | - |
| 1777680983 | 30° C | 18% | 1010.7 hPa | 0 mm | - | 168 W/m² | - |
| 1777680680 | 30.56° C | 18% | 1010.7 hPa | 0 mm | - | 176 W/m² | - |
| 1777680379 | 30.56° C | 18% | 1010.6 hPa | 0 mm | - | 188 W/m² | - |
| 1777680076 | 30.56° C | 19% | 1010.8 hPa | 0 mm | - | 199 W/m² | - |
| 1777679772 | 30° C | 19% | 1010.7 hPa | 0 mm | - | 214 W/m² | - |
| 1777679468 | 30° C | 19% | 1010.7 hPa | 0 mm | - | 231 W/m² | - |
| 1777679163 | 30.56° C | 18% | 1010.7 hPa | 0 mm | - | 244 W/m² | - |
| 1777678861 | 30.56° C | 18% | 1010.8 hPa | 0 mm | - | 261 W/m² | - |
| 1777678559 | 30.56° C | 18% | 1010.8 hPa | 0 mm | - | 275 W/m² | - |
| 1777678256 | 30.56° C | 18% | 1010.8 hPa | 0 mm | - | 290 W/m² | - |
| 1777677952 | 30.56° C | 19% | 1010.7 hPa | 0 mm | - | 306 W/m² | - |
| 1777677649 | 30.56° C | 20% | 1010.8 hPa | 0 mm | - | 315 W/m² | - |
| 1777677347 | 31.11° C | 18% | 1010.9 hPa | 0 mm | - | 333 W/m² | - |
| 1777677045 | 31.11° C | 18% | 1010.9 hPa | 0 mm | - | 350 W/m² | - |
| 1777676743 | 30.56° C | 18% | 1010.7 hPa | 0 mm | - | 362 W/m² | - |
| 1777676441 | 31.11° C | 19% | 1010.7 hPa | 0 mm | - | 373 W/m² | - |
| 1777676138 | 30° C | 20% | 1010.9 hPa | 0 mm | - | 391 W/m² | - |
| 1777675834 | 30.56° C | 20% | 1010.8 hPa | 0 mm | - | 403 W/m² | - |
| 1777675532 | 31.11° C | 19% | 1011 hPa | 0 mm | - | 418 W/m² | - |
| 1777675229 | 30.56° C | 20% | 1011.1 hPa | 0 mm | - | 431 W/m² | - |
| 1777674926 | 30.56° C | 20% | 1011.2 hPa | 0 mm | - | 450 W/m² | - |
| 1777674622 | 30.56° C | 20% | 1011.2 hPa | 0 mm | - | 459 W/m² | - |
| 1777674321 | 30° C | 20% | 1011.1 hPa | 0 mm | - | 474 W/m² | - |
* Rain latest hour (hover to see other rain measurements)
** Current wind speed in m/s (hover to see current wind gust speed)